sat.trackr.live / text

‹ back to catalog

STARLINK-33735

NORAD 63474 · 2025-070Q

PAYLOAD ACTIVE UNKNOWN

§ Identity

Operator
Country
US
Launch date
2025-04-06
Launch site
AFETR
Launch vehicle
Mass (kg)
RCS (m²)

Purposes: comms

External: N2YO · Heavens-Above · Gunter

§ Orbital elements

Epoch: 2026-05-25T03:56:04.047072Z

Period
94.27 min
Inclination
43.0012°
Eccentricity
0.0001047
Mean motion
15.27596303 rev/d
Perigee alt
482.3 km
Apogee alt
483.7 km
Semi-major
6,861.1 km
B*
5.6718e-4
RAAN
187.7848°
Arg perigee
310.4532°
Mean anomaly
49.6228°
Rev number
6,467

§ Raw data

STARLINK-337351 63474U 25070Q   26145.16393573  .00015386  00000+0  56718-3 0  99952 63474  43.0012 187.7848 0001047 310.4532  49.6228 15.27596303 64674

JSON: /api/v1/satellites/63474 · /tle

For live sub-satellite position, see the globe view (requires WebGL).

§ Visibility from observer

Set your observer location to see the next 7 days of passes ≥ 10°. The values pass through the URL so the page stays shareable.

No JS? Fill the form by hand. The geolocation button needs JavaScript.